Home > Weather > Montfoort > Past weeks

Flag for Netherlands Weather for the Past 2 Weeks in Montfoort, Netherlands

Now
33 °F

Fog.


Feels Like: 28 °F
Forecast: 34 / 37 °F
Wind: 5 mph from East

Location: De Bilt

Current Time: Feb 13, 2016 at 11:57:44 AM

Latest Report: Feb 13, 2016 at 10:00 AM


Visibility: 6 mi

Pressure: 29.26 "Hg

Humidity: 88%

Dew point: 29 °F

Location of MontfoortLocation

Historic Weather in Montfoort — Graph

°F

Montfoort Temperature Yesterday

Maximum temperature yesterday: 44 °F (at 2:00 PM)
Minimum temperature yesterday: 32 °F (at 11:00 PM)
Average temperature yesterday: 38 °F

High & Low Weather Summary for the Past Weeks

 TemperatureHumidityPressure
High53 °F (Feb 1, 1:00 PM)98% (Feb 12, 4:00 AM)30.27 "Hg (Feb 12, 4:00 AM)
Low29 °F (Feb 13, 7:00 AM)63% (Jan 31, 1:00 AM)28.94 "Hg (Feb 9, 3:00 PM)
Average43 °F83%29.55 "Hg
* Reported Jan 29 10:00 AM — Feb 13 10:00 AM, Montfoort, Weather by CustomWeather, © 2016

Note: Actual official high and low records may vary slightly from our data, if they occured in-between our weather recording intervals... More about our weather records

Advertising

Montfoort Weather History for the Previous 24 Hours

 ConditionsComfort  
Time TempWeatherWind HumidityBarometerVisibility
10:00 AM
Sat, Feb 13
33 °FFog.5 mph88%29.26 "Hg6 mi
9:00 AM31 °FFog.3 mph90%29.32 "Hg4 mi
8:00 AM29 °FPassing clouds.3 mph92%29.32 "Hg4 mi
7:00 AM29 °FClear.3 mph93%29.32 "Hg4 mi
6:00 AM29 °FPassing clouds.3 mph93%29.35 "Hg4 mi
5:00 AM29 °FClear.2 mph92%29.35 "Hg4 mi
4:00 AM30 °FClear.3 mph92%29.38 "Hg4 mi
1:00 AM31 °FClear.2 mph92%29.41 "Hg7 mi
11:00 PM
Fri, Feb 12
32 °FFog.2 mph93%29.44 "Hg5 mi
10:00 PM33 °FClear.3 mph92%29.44 "Hg6 mi
9:00 PM33 °FOvercast.2 mph91%29.44 "Hg7 mi
8:00 PM35 °FPassing clouds.2 mph91%29.44 "Hg8 mi
7:00 PM38 °FOvercast.2 mph83%29.44 "Hg11 mi
6:00 PM41 °FPassing clouds.3 mph78%29.44 "Hg14 mi
5:00 PM41 °FScattered clouds.2 mph76%29.44 "Hg19 mi
3:00 PM43 °FPartly sunny.5 mph71%29.44 "Hg14 mi
2:00 PM44 °FOvercast.3 mph75%29.47 "Hg13 mi
1:00 PM41 °FOvercast.3 mph82%29.47 "Hg12 mi
12:00 PM40 °FOvercast.5 mph85%29.50 "Hg9 mi
11:00 AM40 °FLow clouds.5 mph89%29.50 "Hg7 mi
Weather by CustomWeather, © 2016

See weather overviewHow to use our weather pages